EHI
0 0 0 0 0 0 0 0 0 0 0 0 0 0 0 1 2 2 1 2 4 5 4 6 8 9 6 3 2 4 5 5 5 4 3 3 3 4 5 5 4 3 3 3 2 2 1 0 0
0 0 0 0 0 0 0 0 0 0 0 0 0 0 0 0 1 1 0 2 4 4 3 4 8 9 7 3 2 3 4 5 5 4 3 3 3 3 4 4 3 3 3 2 1 1 0 0 0
0 0 0 0 0 0 0 0 0 0 0 0 0 0 0 0 0 0 0 1 4 4 3 4 7 9 7 3 1 2 3 4 5 5 4 3 3 3 3 3 3 3 3 1 0 0 0 0 0
0 0 0 0 0 0 0 0 0 0 0 0 0 0 0 0 0 0 0 1 3 4 4 5 8 8 6 2 1 1 2 4 4 5 5 4 3 4 3 3 3 3 2 1 0 0 0 0 0
0 0 0 0 0 0 0 0 0 0 0 0 0 0 0 0 1 1 1 1 3 5 5 6 7 6 4 3 2 1 2 4 5 6 6 5 4 5 4 3 3 3 1 0 0 0 0 0 0
0 0 0 0 0 0 0 0 0 0 0 0 0 0 0 0 1 1 1 2 3 4 4 5 6 4 4 3 1 0 1 4 6 7 7 6 5 6 5 4 3 2 1 0 0 0 0 0 0
0 0 0 0 0 0 0 0 0 0 0 0 0 0 0 0 0 1 2 3 4 4 3 4 4 3 2 2 1 0 2 4 6 6 6 6 6 6 6 5 3 1 0 0 0 0 0 0 0
0 0 0 0 0 0 0 0 0 0 0 0 0 1 2 1 0 1 3 4 5 4 3 3 3 1 1 1 1 1 2 3 3 2 3 4 6 6 6 4 2 1 0 0 0 0 0 0 0
0 0 0 0 0 0 0 0 0 0 0 0 1 2 3 1 0 1 3 6 6 4 3 2 2 1 0 1 1 1 1 1 1 0 1 3 5 5 4 2 1 0 0 0 0 0 0 0 0
0 0 0 0 0 0 0 0 0 0 0 0 1 2 3 1 0 0 2 5 5 3 1 1 1 1 1 1 1 2 1 0 0 1 1 2 4 4 3 1 0 0 0 0 0 0 0 0 0
0 0 0 0 0 0 0 0 0 0 0 0 0 1 1 1 0 0 1 2 2 1 0 0 1 2 2 2 2 2 2 1 1 2 2 3 4 4 3 1 1 0 0 0 0 0 0 0 0
0 0 0 0 0 0 0 0 0 0 0 0 0 0 0 0 0 0 0 0 0 0 0 0 1 2 3 3 3 3 2 1 1 3 4 5 5 4 4 3 2 1 0 0 0 0 0 0 0
0 0 0 0 0 0 0 0 0 0 0 0 0 0 0 0 0 0 0 0 0 0 0 0 1 2 3 3 3 3 2 1 0 2 4 6 6 6 5 4 3 2 1 0 0 0 0 0 0
0 0 0 0 0 0 0 0 0 0 0 0 0 0 0 0 0 0 0 0 0 0 0 0 0 2 3 3 3 2 1 0 0 1 2 4 5 5 4 3 3 2 1 0 0 0 0 0 0
0 0 0 0 0 0 0 0 0 0 0 0 0 0 0 0 0 0 0 0 0 0 0 0 0 2 3 3 3 2 1 0 0 0 1 1 3 4 3 3 3 1 0 0 0 0 0 0 0
0 0 0 0 0 0 0 0 0 0 0 0 0 0 0 0 0 0 0 1 1 1 0 0 0 1 2 3 3 2 1 0 0 0 0 1 1 2 3 3 2 1 0 0 0 0 0 0 0
0 0 0 0 0 0 0 0 0 0 0 0 0 0 0 0 0 0 0 1 2 1 0 0 0 0 1 1 2 1 0 0 1 2 2 1 1 1 3 3 2 1 0 0 0 0 0 0 0
0 0 0 0 0 0 0 0 0 0 0 0 0 0 0 0 0 0 0 0 1 1 0 0 0 0 0 0 0 0 0 0 1 3 3 1 0 1 2 3 2 1 0 0 0 0 0 0 0
0 0 0 0 0 0 0 0 0 0 0 0 0 0 0 0 0 0 0 0 0 0 0 0 0 0 0 0 0 0 0 0 1 2 3 2 1 0 1 1 1 1 0 0 0 0 0 0 0
0 0 0 0 0 0 0 0 0 0 0 0 0 0 0 0 0 0 0 0 0 0 0 0 0 0 0 0 0 0 0 0 1 1 1 2 2 1 0 0 0 0 0 0 0 0 0 0 0
0 0 0 0 0 0 0 0 0 0 0 0 0 0 0 0 0 0 0 0 0 0 0 0 0 0 0 0 0 0 0 0 0 0 0 1 2 1 0 0 0 0 0 0 0 0 0 0 0
0 0 0 0 0 0 0 0 0 0 0 0 0 0 0 0 0 0 0 0 0 0 0 0 0 0 0 0 0 0 0 0 0 0 0 0 1 1 0 0 0 0 0 0 0 0 0 0 0
0 0 0 0 0 0 0 0 0 0 0 0 0 0 0 0 0 0 0 0 0 0 0 0 0 0 0 0 0 0 0 0 0 0 0 0 0 0 0 0 0 0 0 0 0 0 0 0 0
0 0 0 0 0 0 0 0 0 0 0 0 0 0 0 0 0 0 0 0 0 0 0 0 0 0 0 0 0 0 0 0 0 0 0 0 0 0 0 0 0 0 0 0 0 0 0 0 0
0 0 0 0 0 0 0 0 0 0 0 0 0 0 0 0 0 0 0 0 0 0 0 0 0 0 0 0 0 0 0 0 0 0 0 0 0 0 0 0 0 0 0 0 0 0 0 0 0
0 0 0 0 0 0 0 0 0 0 0 0 0 0 0 0 0 0 0 0 0 0 0 0 0 0 0 0 0 0 0 0 0 0 0 0 0 0 0 0 0 0 0 0 0 0 0 0 0
0 0 0 0 0 0 0 0 0 0 0 0 0 0 0 0 0 0 0 0 0 0 0 0 0 0 0 0 0 0 0 0 0 0 0 0 0 0 0 0 0 0 0 0 0 0 0 0 0
0 0 0 0 0 0 0 0 0 0 0 0 0 0 0 0 0 0 0 0 0 0 0 0 0 0 0 0 0 0 0 0 0 0 0 0 0 0 0 0 0 0 0 0 0 0 0 0 0
0 0 0 0 0 0 0 0 0 0 0 0 0 0 0 0 0 0 0 0 0 0 0 0 0 0 0 0 0 0 0 0 0 0 0 0 0 0 0 0 0 0 0 0 0 0 0 0 0
0 0 0 0 0 0 0 0 0 0 0 0 0 0 0 0 0 0 0 0 0 0 0 0 0 0 0 0 0 0 0 0 0 0 0 0 0 0 0 0 0 0 0 0 0 0 0 0 0
Wind_Speed
12 10 6 2 2 3 6 4 2 2 4 5 5 4 5 6 5 6 3 4 6 7 7 6 6 6 6 6 6 6 7 7 7 8 8 8 9 9 9 9 9 9 10 11 11 11 12 12 12
10 7 3 3 3 4 5 5 3 2 5 4 3 3 3 5 7 7 3 4 6 8 6 6 6 6 6 6 6 6 6 6 7 7 7 7 8 8 8 9 9 9 9 10 10 10 11 11 11
9 7 3 3 4 4 3 1 4 6 6 2 1 3 3 4 6 5 4 4 6 7 6 6 6 6 6 6 6 6 6 6 6 6 7 7 7 8 8 8 8 9 9 9 9 10 10 10 9
5 3 3 4 8 5 4 1 4 5 3 1 1 3 4 5 4 5 5 5 6 6 7 6 6 6 6 6 6 6 5 5 5 6 6 6 7 7 7 7 7 8 8 8 9 9 9 9 8
3 3 4 6 8 5 3 1 3 3 3 3 2 2 4 4 6 6 4 4 6 6 6 6 5 6 6 6 5 5 5 5 5 5 5 6 6 6 6 7 7 7 7 8 8 8 8 8 7
3 3 5 7 7 5 3 2 2 2 2 2 2 2 4 5 6 4 4 4 5 5 6 6 6 6 6 5 5 5 5 4 5 5 5 5 5 6 6 6 6 6 6 7 7 7 7 7 6
3 3 6 7 5 4 2 2 1 2 2 1 0 2 5 5 5 4 3 4 5 5 5 4 4 5 5 5 4 4 4 4 4 4 4 4 5 5 6 6 5 5 5 5 6 6 6 6 5
3 3 6 7 6 4 2 2 2 2 1 3 3 2 4 5 4 3 3 3 4 4 4 4 3 3 3 3 3 4 4 3 3 3 3 3 4 5 5 5 5 5 4 5 5 6 6 5 4
3 4 5 5 4 2 3 2 2 3 1 2 3 4 5 6 4 3 3 3 3 4 3 3 3 3 2 2 3 3 3 3 3 2 3 3 2 3 3 4 4 4 4 5 5 6 6 5 3
3 4 5 3 4 1 2 2 2 1 1 1 2 5 6 5 3 3 3 3 3 2 2 2 2 2 2 2 2 1 1 1 1 1 1 1 1 2 3 4 4 3 3 4 4 5 4 3 2
3 4 3 3 5 3 1 1 2 2 3 2 2 5 4 3 2 2 2 2 3 2 2 2 2 2 1 1 1 0 0 1 1 1 1 1 1 2 2 2 2 2 2 2 3 3 2 1 2
4 3 3 2 3 3 2 1 1 2 1 2 3 5 5 3 2 2 2 2 2 2 2 2 2 2 2 2 1 1 1 1 0 0 1 1 1 1 1 1 1 1 1 1 2 1 2 2 2
7 3 1 1 2 2 2 3 2 2 0 1 2 4 4 3 2 2 2 2 2 2 2 2 2 2 2 2 1 1 1 1 1 1 0 1 1 1 2 1 2 1 1 1 1 1 2 2 1
1 1 2 2 2 2 3 4 3 3 2 2 2 3 3 3 3 2 2 2 1 2 2 2 2 2 2 1 1 1 1 1 1 1 1 1 1 1 2 2 2 1 1 1 1 2 2 2 1
1 3 4 5 5 3 2 6 7 5 4 4 4 3 3 2 3 2 2 1 1 2 2 1 1 1 1 1 1 1 1 1 1 1 1 1 1 1 2 2 2 1 1 1 1 1 1 1 1
5 5 5 5 6 4 4 7 4 6 6 4 4 3 3 3 3 2 2 1 1 2 2 1 1 1 1 1 1 0 1 1 1 1 1 1 1 2 2 2 1 1 1 1 1 1 1 1 1
6 6 6 5 6 4 6 6 3 3 4 4 4 4 3 3 3 3 3 2 1 2 2 2 1 2 1 1 1 1 1 1 1 1 1 1 1 2 2 2 2 2 1 1 1 1 1 1 1
4 5 5 5 5 4 7 7 4 3 4 4 4 4 3 3 3 3 3 2 2 2 2 2 2 2 1 1 1 1 1 0 0 1 1 1 1 2 2 2 2 2 2 1 1 1 1 1 1
5 5 6 4 1 4 7 8 6 5 5 5 5 4 4 3 3 3 3 2 2 2 2 2 2 2 1 1 1 1 1 0 0 1 2 2 2 1 2 2 3 2 2 2 2 1 2 1 1
5 7 6 4 1 3 6 9 7 6 7 6 5 4 4 3 3 3 3 2 2 2 2 2 2 1 1 1 0 1 1 1 1 1 1 2 2 2 2 3 2 2 2 2 2 2 1 1 1
6 6 5 4 4 4 5 7 7 5 6 5 5 4 3 4 4 3 2 2 2 2 1 1 1 1 1 1 1 1 1 1 1 1 1 1 2 2 2 2 2 2 2 2 2 2 3 1 1
6 3 4 4 3 4 3 6 5 6 6 6 5 4 4 4 4 4 3 2 2 1 1 1 1 1 1 1 1 2 1 1 1 1 1 1 2 1 2 1 1 2 2 2 2 2 2 3 1
3 2 3 5 5 5 5 6 6 5 6 7 6 5 4 4 4 4 3 3 2 2 2 1 1 1 1 1 2 2 2 1 1 2 2 2 1 1 1 2 1 1 1 2 2 2 2 2 2
1 1 3 4 3 6 8 7 6 4 6 5 5 5 4 4 5 4 4 3 2 2 2 2 2 2 2 2 2 2 2 2 2 2 1 1 1 1 1 2 1 1 1 1 2 2 3 2 2
2 1 1 2 4 7 5 6 6 2 2 5 5 4 4 5 5 4 4 3 2 2 2 2 2 2 2 2 2 2 2 2 2 2 1 1 1 1 1 1 1 1 1 1 1 1 2 2 3
5 4 4 3 4 3 2 6 4 2 3 4 4 4 5 4 4 4 3 3 2 2 2 2 2 2 2 2 1 1 1 2 1 2 1 1 1 1 1 1 1 1 1 1 1 1 1 1 2
3 5 2 3 3 4 5 4 1 3 3 3 4 4 4 4 4 4 3 3 3 2 2 2 2 2 2 2 2 1 1 2 2 2 2 1 1 1 1 1 1 1 1 1 1 1 1 1 2
3 2 1 3 3 4 5 6 4 4 4 3 4 4 4 4 4 4 3 3 3 2 2 2 2 2 2 2 1 1 1 2 2 1 1 1 1 1 1 1 1 1 0 0 1 1 1 1 2
4 3 3 3 3 3 4 4 2 2 3 4 3 4 4 4 4 3 3 3 3 2 2 2 2 2 2 2 2 2 1 2 2 1 1 1 1 1 1 1 1 1 0 0 0 1 1 1 2
3 4 5 4 5 4 4 6 2 2 3 3 3 3 3 3 3 3 3 3 2 2 2 2 2 2 2 2 2 1 1 1 2 1 1 1 1 1 1 1 1 1 1 1 1 0 0 1 1
Wind_Direction
297 270 251 251 242 231 240 248 267 74 50 28 27 19 28 28 33 100 133 91 99 109 113 115 102 101 103 99 98 94 91 88 87 92 92 91 89 86 84 82 85 91 91 91 91 90 88 87 85
291 276 253 238 240 234 236 220 225 94 82 53 32 14 53 68 76 98 105 90 105 110 113 112 103 102 104 103 100 99 96 92 91 94 95 94 95 91 87 86 84 90 95 95 93 92 90 87 85
272 261 244 229 232 240 260 54 83 79 86 84 61 31 38 62 78 94 99 102 104 109 110 107 105 106 106 107 106 99 97 94 95 97 100 96 99 96 92 91 88 86 96 100 97 94 92 89 87
263 237 242 240 245 246 263 47 94 107 106 125 118 94 77 49 59 91 108 106 103 103 104 109 106 107 106 108 110 107 101 97 99 99 102 99 100 99 94 94 91 88 93 100 98 96 93 91 88
245 240 229 236 243 249 266 88 112 146 153 177 168 102 90 74 81 92 104 104 104 103 108 114 104 104 103 103 105 105 105 104 104 103 108 108 106 105 100 97 97 92 94 101 102 100 97 93 89
244 240 235 235 234 230 227 156 168 171 185 174 151 123 103 104 96 97 98 97 97 104 110 118 103 100 97 97 94 94 102 105 105 107 112 117 112 112 113 108 106 101 97 104 106 107 105 98 90
258 251 250 257 247 236 210 116 170 182 195 172 14 120 117 103 98 105 97 96 92 95 106 119 120 107 95 91 91 96 99 101 102 104 105 111 110 114 120 116 114 110 106 110 111 112 111 105 96
284 274 252 253 253 243 132 115 44 19 18 26 13 65 123 120 113 107 103 93 96 93 101 116 118 118 118 109 100 93 95 101 105 107 108 114 120 122 123 122 119 118 115 117 121 119 119 116 111
275 255 253 256 262 235 126 125 66 35 30 50 45 48 87 111 118 121 112 97 91 87 95 106 115 119 122 125 112 106 103 107 109 112 117 124 141 140 130 119 116 116 119 125 128 130 122 123 134
221 241 248 299 339 337 136 129 121 149 196 184 97 90 107 115 124 138 136 121 100 79 84 87 89 92 100 110 110 123 146 142 129 119 133 148 141 139 125 121 119 117 123 136 137 136 132 132 151
216 235 265 323 6 360 47 151 171 213 222 206 145 121 115 126 138 140 130 118 117 107 73 73 77 79 79 77 106 94 83 118 110 115 127 143 123 118 116 127 117 117 125 141 140 144 163 154 135
242 256 285 321 3 338 310 282 223 251 275 47 95 133 139 158 159 140 119 107 100 96 79 69 67 62 55 58 68 93 91 101 120 106 112 114 115 121 129 130 135 140 143 128 146 172 169 136 138
230 247 272 331 316 295 285 266 257 256 291 34 98 138 151 161 151 122 111 96 98 91 67 63 65 70 61 55 43 46 51 90 82 89 120 106 124 144 137 134 127 132 121 124 157 161 144 137 152
247 250 249 253 254 262 249 248 233 225 183 188 177 178 170 161 146 134 128 129 117 103 83 58 64 66 81 77 52 40 32 57 78 101 127 122 131 140 141 140 132 137 131 143 152 158 152 155 142
246 242 237 222 218 216 238 248 224 202 194 205 199 196 182 174 152 146 126 132 131 123 118 95 83 72 76 92 78 57 52 53 81 93 136 134 128 134 129 135 136 143 133 138 118 126 124 131 124
220 229 228 200 196 182 202 248 214 179 185 206 204 199 192 179 157 130 110 104 114 122 125 121 110 94 66 66 75 83 97 89 92 93 117 140 137 135 132 132 129 115 108 117 124 112 104 115 125
213 228 228 206 183 188 217 252 206 174 182 212 216 208 191 170 153 128 122 126 126 124 120 124 121 110 89 82 83 47 76 91 96 102 114 135 145 150 141 140 129 122 118 106 111 110 109 114 132
228 245 250 231 181 212 238 247 218 203 212 226 227 219 195 171 157 126 119 127 123 117 119 121 105 97 94 104 117 95 62 52 77 105 99 98 114 133 135 130 129 126 117 100 100 116 110 114 140
296 286 275 277 186 230 245 251 237 215 214 229 231 217 192 169 137 119 121 129 121 112 110 114 116 104 97 117 151 171 190 141 44 93 107 112 100 105 133 130 140 134 131 137 123 96 111 84 80
273 272 277 296 283 263 266 265 250 223 218 218 222 209 182 160 142 141 143 128 117 116 118 115 107 111 111 120 169 171 136 128 130 93 99 107 100 86 106 127 134 138 135 125 121 107 94 77 78
256 262 271 283 306 266 270 274 236 216 221 211 205 201 178 168 163 159 153 137 117 121 134 130 131 131 139 138 123 101 81 91 103 89 86 72 83 85 92 119 128 129 140 143 136 132 116 121 46
256 271 282 278 281 263 229 276 245 212 214 214 201 192 175 154 153 153 144 127 119 112 102 113 122 128 142 150 140 133 137 138 143 126 117 93 89 80 81 87 121 132 136 145 148 135 125 133 152
258 336 282 265 264 273 241 252 265 202 218 210 191 180 162 141 140 135 131 122 105 94 116 130 121 128 128 117 124 123 118 128 107 98 96 94 93 93 89 91 82 108 129 147 150 142 140 145 161
301 295 262 249 244 253 226 224 267 216 216 190 176 167 152 136 126 117 106 98 89 85 110 128 120 107 109 110 116 125 124 112 101 92 90 89 83 83 77 104 101 90 94 120 155 162 168 171 171
223 198 249 231 219 241 218 217 246 239 168 164 162 155 145 132 127 124 121 115 110 110 111 113 103 100 103 99 109 128 138 125 124 128 119 99 71 51 30 76 118 126 112 104 109 151 178 179 181
212 216 211 229 240 270 235 228 240 118 87 100 128 134 131 132 131 126 125 125 118 104 110 106 97 88 95 102 107 112 120 125 121 111 111 108 101 82 47 49 73 120 141 120 115 140 186 172 184
221 224 262 286 282 273 249 241 226 135 109 116 127 137 144 141 131 127 122 122 124 126 128 128 112 95 88 94 95 92 92 102 109 114 109 102 91 80 69 62 66 65 118 156 151 170 202 189 190
262 281 215 211 241 257 252 237 229 187 189 162 155 161 152 138 130 127 129 123 119 118 112 108 114 112 100 87 93 90 80 86 98 97 102 104 92 79 109 87 76 68 48 161 164 179 212 196 212
208 223 234 243 238 239 266 263 358 153 167 162 159 146 142 146 146 137 130 118 112 107 109 104 109 113 107 100 90 81 65 68 78 83 92 94 85 88 83 68 53 53 35 349 243 206 193 217 229
254 225 203 218 242 239 259 267 338 82 104 115 125 136 142 148 146 142 131 119 115 120 120 111 114 116 124 123 112 105 88 80 79 82 74 71 80 84 79 71 62 48 27 8 355 293 282 241 252